Location: Pel�-Koumbol�
(14.9505°N, 3.0798°W)
Time: 08:43:27
(UTC+00:00)

Lacrosse 4 Rocket - Pass Details

Date: 17 February 2020
Orbit: 537 x 622 km, 68.0° (Epoch: 28 March)

Event Time Altitude Azimuth Distance (km) Brightness Sun altitude
Exits shadow 04:39:56 21° 26° (NNE) 1,408 3.5 -28.5°
Maximum altitude 04:41:55 29° 68° (ENE) 1,134 3.4 -28.0°
Drops below altitude 10° 04:45:48 10° 129° (SE) 1,972 4.8 -27.1°
Sets 04:48:16 0° 140° (SE) 2,868 5.6 -26.5°
